Home   Weather   Opole   Past weeks

Flag for Poland Past Weather in Opole, Poland — Yesterday and Last 2 Weeks

Now
72 °F

Sunny.


Feels Like: 76 °F
Forecast: 54 / 69 °F
Wind: 7 mph from Southeast

Location: Wroclaw Ii

Current Time: Oct 1, 2016 at 5:41:55 PM

Latest Report: Oct 1, 2016 at 5:00 PM


Visibility: 10 mi

Pressure: 29.83 "Hg

Humidity: 61%

Dew Point: 57 °F

Location of OpoleLocation

Past Weather in Opole — Graph

°F

Opole Temperature Yesterday

Maximum temperature yesterday: 75 °F (at 4:30 PM)
Minimum temperature yesterday: 59 °F (at 1:30 AM)
Average temperature yesterday: 67 °F

High & Low Weather Summary for the Past Weeks

 TemperatureHumidityPressure
High82 °F (Sep 16, 4:30 PM)100% (Sep 17, 5:00 PM)30.36 "Hg (Sep 17, 5:00 PM)
Low37 °F (Sep 22, 5:00 AM)38% (Sep 26, 4:00 PM)29.80 "Hg (Sep 17, 4:30 AM)
Average57 °F77%30.10 "Hg
* Reported Sep 16 4:00 PM — Oct 1 4:30 PM, Opole, Weather by CustomWeather, © 2016

Note: Actual official high and low records may vary slightly from our data, if they occured in-between our weather recording intervals... More about our weather records

Advertising

Opole Weather History for the Previous 24 Hours

Scroll right to see more
 ConditionsComfort  
Time TempWeatherWind HumidityBarometerVisibility
4:30 PM
Sat, Oct 1
72 °FPassing clouds.9 mph61%29.83 "HgN/A
4:00 PM72 °FPassing clouds.12 mph61%29.86 "HgN/A
3:30 PM72 °FPassing clouds.9 mph61%29.86 "HgN/A
3:00 PM70 °FSunny.12 mph64%29.86 "Hg10 mi
2:30 PM70 °FSunny.12 mph64%29.86 "Hg10 mi
2:00 PM70 °FSunny.12 mph60%29.89 "Hg10 mi
1:30 PM70 °FSunny.10 mph64%29.89 "Hg10 mi
1:00 PM68 °FPassing clouds.12 mph64%29.92 "HgN/A
12:30 PM68 °FSunny.14 mph60%29.92 "Hg10 mi
12:00 PM66 °FSunny.15 mph64%29.92 "Hg10 mi
11:30 AM64 °FSunny.15 mph68%29.92 "Hg10 mi
11:00 AM64 °FSunny.14 mph68%29.95 "Hg10 mi
10:30 AM63 °FSunny.12 mph73%29.95 "Hg10 mi
10:00 AM61 °FSunny.13 mph77%29.95 "Hg10 mi
9:30 AM57 °FSunny.10 mph88%29.95 "Hg10 mi
9:00 AM57 °FSunny.7 mph88%29.95 "Hg10 mi
8:30 AM55 °FSunny.2 mph94%29.95 "Hg10 mi
8:00 AM54 °FSunny.3 mph94%29.98 "Hg10 mi
7:30 AM54 °FSunny.3 mph94%29.95 "Hg10 mi
7:00 AM54 °FPassing clouds.6 mph100%29.95 "HgN/A
6:30 AM54 °FPassing clouds.5 mph94%29.95 "HgN/A
6:00 AM54 °FPassing clouds.5 mph94%29.98 "HgN/A
5:30 AM54 °FFog.1 mph94%29.98 "HgN/A
5:00 AM54 °FFog.1 mph94%29.98 "HgN/A
4:30 AM52 °FFog.1 mph100%29.98 "HgN/A
4:00 AM54 °FFog.2 mph100%29.98 "HgN/A
3:30 AM54 °FFog.2 mph94%29.98 "HgN/A
3:00 AM55 °FClear.1 mph94%29.98 "Hg10 mi
2:30 AM55 °FClear.2 mph88%30.01 "Hg10 mi
2:00 AM55 °FClear.5 mph94%30.01 "Hg10 mi
1:30 AM57 °FPassing clouds.2 mph82%30.01 "HgN/A
1:00 AM59 °FSprinkles. Passing clouds.5 mph72%30.01 "HgN/A
12:30 AM59 °FClear.7 mph72%30.01 "Hg10 mi
12:00 AM59 °FClear.9 mph77%29.98 "Hg10 mi
11:30 PM
Fri, Sep 30
59 °FClear.7 mph77%29.98 "Hg10 mi
11:00 PM59 °FClear.7 mph77%29.98 "Hg10 mi
10:30 PM61 °FClear.10 mph77%29.98 "Hg10 mi
10:00 PM61 °FClear.7 mph77%29.98 "Hg10 mi
9:30 PM63 °FClear.7 mph73%29.98 "Hg10 mi
9:00 PM63 °FPassing clouds.9 mph73%29.98 "HgN/A
8:30 PM64 °FClear.16 mph68%29.98 "Hg10 mi
8:00 PM66 °FClear.16 mph68%29.95 "Hg10 mi
7:30 PM68 °FPassing clouds.5 mph64%29.92 "HgN/A
7:00 PM70 °FPassing clouds.6 mph57%29.92 "HgN/A
6:30 PM70 °FSunny.5 mph57%29.92 "Hg10 mi
6:00 PM72 °FSunny.5 mph53%29.92 "Hg10 mi
5:30 PM73 °FSunny.8 mph50%29.92 "Hg10 mi
5:00 PM75 °FSunny.12 mph47%29.92 "Hg10 mi
Weather by CustomWeather, © 2016

See weather overviewHow to use our weather pages